This is the latest recevied weather packets stored in our database for station/object KK6LVQ-13. If no packets are shown the sender has not sent any weather packets the latest 10 day(s).
| Time | Temp. | Humidity | Pressure | Rain* | Wind** | Luminosity | Snow |
|---|---|---|---|---|---|---|---|
| 1777658619 | 16.11° C | 78% | 1020.5 hPa | 0 mm | - | 686 W/m² | - |
| 1777658317 | 15.56° C | 79% | 1020.7 hPa | 0 mm | - | 633 W/m² | - |
| 1777658013 | 15.56° C | 79% | 1020.7 hPa | 0 mm | - | 638 W/m² | - |
| 1777657710 | 16.11° C | 79% | 1020.7 hPa | 0 mm | - | 646 W/m² | - |
| 1777657408 | 15.56° C | 79% | 1020.7 hPa | 0 mm | - | 635 W/m² | - |
| 1777657106 | 15.56° C | 79% | 1020.7 hPa | 0 mm | - | 619 W/m² | - |
| 1777656803 | 15.56° C | 79% | 1020.7 hPa | 0 mm | - | 610 W/m² | - |
| 1777656498 | 15° C | 80% | 1020.7 hPa | 0 mm | - | 599 W/m² | - |
| 1777656193 | 15° C | 81% | 1020.6 hPa | 0 mm | - | 586 W/m² | - |
| 1777655889 | 14.44° C | 81% | 1020.8 hPa | 0 mm | - | 577 W/m² | - |
| 1777655586 | 15° C | 81% | 1020.8 hPa | 0 mm | - | 566 W/m² | - |
| 1777655283 | 15° C | 81% | 1020.7 hPa | 0 mm | - | 553 W/m² | - |
| 1777654980 | 14.44° C | 82% | 1020.6 hPa | 0 mm | - | 537 W/m² | - |
| 1777654677 | 14.44° C | 83% | 1020.7 hPa | 0 mm | - | 524 W/m² | - |
| 1777654375 | 13.89° C | 84% | 1020.5 hPa | 0 mm | - | 511 W/m² | - |
| 1777654073 | 13.33° C | 85% | 1020.8 hPa | 0 mm | - | 499 W/m² | - |
| 1777653770 | 12.78° C | 86% | 1020.9 hPa | 0 mm | - | 480 W/m² | - |
| 1777653465 | 12.78° C | 87% | 1020.8 hPa | 0 mm | - | 463 W/m² | - |
| 1777653163 | 12.22° C | 88% | 1021 hPa | 0 mm | - | 456 W/m² | - |
| 1777652858 | 12.22° C | 89% | 1020.9 hPa | 0 mm | - | 440 W/m² | - |
| 1777652555 | 11.67° C | 89% | 1021.1 hPa | 0 mm | - | 425 W/m² | - |
| 1777652253 | 11.67° C | 90% | 1020.9 hPa | 0 mm | - | 409 W/m² | - |
| 1777651950 | 11.67° C | 90% | 1021 hPa | 0 mm | - | 394 W/m² | - |
| 1777651646 | 11.67° C | 90% | 1021.1 hPa | 0 mm | - | 379 W/m² | - |
| 1777651343 | 11.11° C | 90% | 1021 hPa | 0 mm | - | 341 W/m² | - |
* Rain latest hour (hover to see other rain measurements)
** Current wind speed in m/s (hover to see current wind gust speed)